Location: Gorze? G�rny
(49.8500°N, 19.5000°E)
Time: 02:38:16
(UTC+00:00)

Meteor 2-4 Rocket - Pass Details

Date: 13 May 2021
Orbit: 799 x 909 km, 81.2° (Epoch: 23 June)

Event Time Altitude Azimuth Distance (km) Brightness Sun altitude
Exits shadow 22:24:29 35° 217° (SW) 1,369 4.4 -21.5°
Maximum altitude 22:26:51 63° 285° (WNW) 956 4.0 -21.5°
Drops below altitude 10° 22:32:24 10° 7° (N) 2,467 7.3 -21.5°
Sets 22:34:50 0° 11° (N) 3,389 8.3 -21.5°
